ALOS (DAICHI)

Last updated on Thu Nov 21 2024 00:02:13 GMT+0000 (Coordinated Universal Time)

1 28931U 06002A 24325.34045071 .00003034 00000+0 54698-3 0 9995 2 28931 98.0581 275.3600 0002091 54.9454 305.1947 14.67241318 3854
UTC large
Height (km)
Speed (km/s)
/
Latitude / Longitude
Inclination (degrees)
Orbital Period (minutes)
Azimuth
Elevation
Range (km)
Doppler Factor

Next 0 passes for location: London (51.5072 / 0.1276)

Sorry there are no passes over London.